Location: *
(45.9500°N, 9.0833°E)
Time: 20:00:39
(UTC+00:00)

Vanguard 2 Rocket - Pass Details

Date: 19 June 2021
Orbit: 555 x 3325 km, 32.9° (Epoch: 30 July)

Event Time Altitude Azimuth Distance (km) Brightness Sun altitude
Rises 01:27:59 0° 270° (W) 5,582 10.6 -15.2°
Enters shadow 01:34:24 - 248° (WSW) 4,047 9.7 -14.7°
Maximum altitude 01:37:40 10° 229° (SW) 3,514 - -14.4°
Drops below altitude 10° 01:37:47 10° 228° (SW) 3,501 - -14.4°
Sets 01:44:35 0° 181° (S) 3,668 - -13.7°
